Retour au catalogue

STARLINK-3160

ActifCommunicationsVLEO
NORAD 49454·PAYLOAD·🇺🇸 United States

Lancé Nov 13, 2021 depuis Cape Canaveral Space Force Station

Loading…

Prochains Passages (prochaines 24 heures)

TLE

FraisSource: CelesTrak SupGP

Époque: Sep 15, 2026, 01:53 UTC

1 49454C 21104AY  26258.07895833 -.00018552  00000+0 -54829-3 0  2581
2 49454  53.1590  76.7162 0001199  83.6882 219.9960 15.34389768    16

Suivez STARLINK-3160 en temps réel avec AllMySat

Download on the App Store